Location: Arrington
(35.8681°N, 86.7092°W)
Time: 04:48:59
(UTC+00:00)

SL-16 R/B - Pass Details

Date: 23 November 2019
Orbit: 842 x 846 km, 71.0° (Epoch: 13 December)

Event Time Altitude Azimuth Distance (km) Brightness Sun altitude
Exits shadow 10:22:34 64° 232° (SW) 934 2.1 -25.7°
Drops below altitude 10° 10:27:49 10° 171° (S) 2,456 4.8 -24.7°
Sets 10:30:16 0° 169° (SSE) 3,387 5.6 -24.2°
